NOAA 16 DEB, 41280

Orbit data source: Space-Track

NOAA 16 DEB, 41280 is space debris in SSO originally from a launch on Thu, 21 Sep 2000 UTC launched from the Air Force Western Test Range (AFWTR). Debris objects in space refer to the collection of defunct objects orbiting the Earth. Examples of debris include non-operational satellites, rocket bodies, and fragments generated from explosions, collisions, or faulty payload assembly.

Loading next visibility...
NOAA 16 DEB details
Identifier
41280, 2000-055GG
Orbit
SSO
Last TLE update3 days ago
Origin
Flag of USNOAA (US)
ManufacturerUnknown
MissionSpacecraft
Bus & MotorUnknown
MassUnknown
Launch date (UTC)
2000-09-21 (24 years ago)
Launch vehicleUnknown
Launch site
Air Force Western Test Range (AFWTR)
Object type
Payload
Rocket body
Debris
Shape & HBRUnknown
Radar Cross SectionSmall (<0.1 m²)

Expand to show TLE details & history

TLE from 3 days ago
0 NOAA 16 DEB
1 41280U 00055GG  24359.24587059  .00008895  00000-0  44756-2 0  9996
2 41280  98.6638   2.9801 0030888 311.9145  47.9396 14.16365729462664
Epoch: 2024-12-24T05:54Z
Definitive object data (Epoch: 2024-12-24T05:54:03.218Z)
Latitude-0.00009°
Longitude-178.79002°
Altitude825.685 km
Speed7.448 km/s
True Right ascension00h 11m 55s
True Declination0° 00' 00"
Sunlit
Object was in daylight at TLE epoch
Visualization TLE readout
Latitude-11.77513°
Longitude2.04824°
Altitude851.12 km
Speed7.422 km/s
Apparent Right ascension11h 35m 16s
Apparent Declination-25° 18' 16"
Sunlit
Object is in daylight
Visualization observer readout
Local Sidereal Time22:37:09
Azimuth315.862° NNW
Elevation-70.994°
Doppler factor1
Orbital elements
Apogee altitude857.111 km
Perigee altitude812.552 km
Semi-major axis7,212.968 km
Eccentricity0.0030888
Inclination98.6638°
RAAN2.9801°
Arg. of periapsis311.9145°
True anomaly48.20307°
Mean anomaly47.9396°
Eccentric anomaly48.07127°
Mean motion3.54301 °/min
BSTAR0.0044756
Orbital period101.61 mins
Loading maneuver chart data...
Loading historical data...
Loading historical data...
Loading historical data...
Loading historical data...
Loading historical data...
Loading historical data...
Loading historical data...

NOAA 16 DEB Visibility forecast

Observer location: undefined°, undefined

Span
Click to sort rows by Start time (UTC) header in descending order
Start Az.
Max El. time (UTC)
Max El. Az.
Max El.
End time (UTC)
End Az.
10 mins2024-12-27 00:07:52.771Z152.54° SSE2024-12-27 00:12:52.771Z75.604° E41.968°2024-12-27 00:17:52.771Z353.717° N
5 mins2024-12-27 01:51:52.771Z245.422° WSW2024-12-27 01:53:52.771Z270.194° WNW15.163°2024-12-27 01:56:52.771Z304.451° NW
8 mins2024-12-27 12:29:52.771Z44.949° NE2024-12-27 12:32:52.771Z86.22° E25.76°2024-12-27 12:37:52.771Z153.893° SSE
8 mins2024-12-27 14:09:52.771Z350.71° N2024-12-27 14:13:52.771Z289.789° WNW30.709°2024-12-27 14:17:52.771Z231.608° WSW
|